sat.trackr.live / text

‹ back to catalog

ONEWEB-0379

NORAD 49305 · 2021-090AC

PAYLOAD ACTIVE UNKNOWN

§ Identity

Operator
Country
UK
Launch date
2021-10-14
Launch site
VOSTO
Launch vehicle
Mass (kg)
RCS (m²)

Purposes: comms

External: N2YO · Heavens-Above · Gunter

§ Orbital elements

Epoch: 2026-09-19T17:28:20.617824Z

Period
109.55 min
Inclination
87.8896°
Eccentricity
0.0002041
Mean motion
13.14502066 rev/d
Perigee alt
1,204.2 km
Apogee alt
1,207.3 km
Semi-major
7,583.9 km
B*
3.1310e-4
RAAN
270.8523°
Arg perigee
89.6015°
Mean anomaly
270.5348°
Rev number
23,998

§ Raw data

ONEWEB-03791 49305U 21090AC  26262.72801641  .00000129  00000+0  31310-3 0  99922 49305  87.8896 270.8523 0002041  89.6015 270.5348 13.14502066239980

JSON: /api/v1/satellites/49305 · /tle

For live sub-satellite position, see the globe view (requires WebGL).

§ Visibility from observer

Set your observer location to see the next 7 days of passes ≥ 10°. The values pass through the URL so the page stays shareable.

No JS? Fill the form by hand. The geolocation button needs JavaScript.